Regional Weather Roundup
Issued by NWS

Home | Current Version | Previous Version | Text Only | Print | Product List | Glossary On
Versions: 1 2 3 4 5 6 7 8 9 10 11 12 13 14 15 16 17 18 19 20 21 22 23 24 25 26 27 28 29 30 31 32 33 34 35 36 37 38 39 40 41 42 43 44 45 46 47 48 49 50
195
ASUS44 KFWD 241703
RWRTX
NORTH TEXAS HOURLY WEATHER ROUNDUP
NATIONAL WEATHER SERVICE FORT WORTH TX
1200 PM CDT TUE APR 24 2018

NOTE: "FAIR" INDICATES FEW OR NO CLOUDS BELOW 12,000 FEET WITH NO
SIGNIFICANT WEATHER AND/OR OBSTRUCTIONS TO VISIBILITY.

TXZ118-119-241800-
DALLAS/FORT WORTH METROPLEX

CITY           SKY/WX    TMP DP  RH WIND       PRES   REMARKS
DFW AIRPORT    FAIR      76  50  40 E6        30.10F
DALLAS LOVE    FAIR      78  50  37 E6        30.11F
FTW MEACHAM    FAIR      78  54  43 E7        30.10F
DAL-EXECUTIVE  FAIR      77  51  40 SE7       30.11F
FTW-ALLIANCE   FAIR      77  52  41 VRB6      30.11F
FTW-NAS-JRB    FAIR      77  52  41 E8        30.11F
FTW-SPINKS     SUNNY     77  54  44 E5        30.13F
ARLINGTON      FAIR      76  52  43 VRB6      30.12F
GRAND PRAIRIE  SUNNY     75  52  43 CALM      30.13F
ADDISON        SUNNY     75  48  38 E3        30.12F
MESQUITE       SUNNY     75  48  38 N9        30.12F
LANCASTER      FAIR      75  51  42 CALM      30.12F
$$

TXZ091>094-102>105-117-120-121-131>134-241800-
NORTH CENTRAL TEXAS

CITY           SKY/WX    TMP DP  RH WIND       PRES   REMARKS
SHRMAN/DENISON FAIR      73  49  42 NE5       30.13F
GAINESVILLE    FAIR      74  48  39 CALM      30.14F
BOWIE          FAIR      75  51  42 E8        30.12F
BRIDGEPORT     FAIR      76  51  42 E8        30.13F
DECATUR        FAIR      75  51  42 CALM      30.12F
DENTON         FAIR      76  52  43 E7        30.11F
MCKINNEY       FAIR      75  52  44 CALM      30.11F
BONHAM         FAIR      74  51  45 N6        30.12F
ROCKWALL       FAIR      75  52  45 MISG      30.12F
TERRELL        FAIR      76  51  41 VRB3      30.12F
WAXAHACHIE     FAIR      75  54  48 NE5       30.12F
CLEBURNE       FAIR      77  52  41 E8        30.13S
GRANBURY       FAIR      77  51  40 SE6       30.12F
$$

TXZ083>090-098>101-113>116-127>130-139>142-154-155-241800-
WESTERN NORTH TEXAS

CITY           SKY/WX    TMP DP  RH WIND       PRES   REMARKS
WICHITA FALLS  FAIR      75  51  43 E10       30.11F
WF-KICKAPOO    FAIR      74  52  44 SE9       30.14S
VERNON         FAIR      77  46  34 E13G18    30.12S
ABILENE        FAIR      76  55  48 SE9       30.09F
ABILENE-DYESS  FAIR      81  53  38 SE12G17   30.06F
GRAHAM           N/A     78  49  35 E7        30.10S
BRECKENRIDGE   FAIR      81  47  30 SE10G16   30.10F
CISCO          FAIR      77  54  44 SE10      30.11F
EASTLAND       FAIR      77  53  41 SE9       30.10F
RANGER         FAIR      78  50  37 SE10G17   30.11F
MINERAL WELLS  FAIR      78  51  38 E9        30.10F
STEPHENVILLE   FAIR      78  48  34 E7        30.14F
COMANCHE       FAIR      79  55  43 SE7       30.12S
BROWNWOOD      FAIR      81  54  39 SE8       30.09F
BRADY          FAIR      81  52  36 S13       30.09S
$$

TXZ143>147-156>162-174-175-241800-
CENTRAL TEXAS

CITY           SKY/WX    TMP DP  RH WIND       PRES   REMARKS
WACO           FAIR      79  53  40 E7        30.10F
WACO-TSTC      SUNNY     77  54  44 E5        30.11F
WACO-MCGREGOR  FAIR      78  54  43 NE6       30.11F
HILLSBORO      FAIR      77  56  48 CALM      30.11F
CORSICANA      FAIR      76  56  49 NE7       30.13F
MEXIA          FAIR      75  54  47 CALM      30.11F
HEARNE         FAIR      78  55  45 N6        30.11F
CAMERON        FAIR      79  55  42 NE3       30.11S
TEMPLE         FAIR      79  55  43 E9        30.11F
KILLEEN        MOSUNNY   79  52  38 SE7       30.10F
KILLEEN-SKYLRK FAIR      79  57  46 E7        30.11F
FORT HOOD      FAIR      79  56  44 SE9       30.07F
GATESVILLE     FAIR      77  54  44 VRB3      30.12F
HAMILTON       FAIR      78  54  43 SE8       30.13S
LAMPASAS       FAIR      78  56  46 E10       30.09F
$$

TXZ095>097-106>112-122>126-135>138-148>153-164>167-241800-
EAST TEXAS

CITY           SKY/WX    TMP DP  RH WIND       PRES   REMARKS
PARIS          FAIR      73  47  39 NW9       30.11F
SULPHUR SPRNGS FAIR      74  49  40 N8        30.13F
MOUNT PLEASANT FAIR      73  52  47 N7        30.12S
GILMER         FAIR      72  53  52 N3        30.11S
MINEOLA        FAIR      73  54  49 N8        30.12S
TYLER          FAIR      75  48  38 NW6       30.11S
LONGVIEW       FAIR      74  55  51 N9        30.09F
MARSHALL       FAIR      72  54  51 N7        30.11F
ATHENS         FAIR      73  50  43 N6        30.10F
PALESTINE      FAIR      75  55  48 NW7       30.13F
JACKSONVILLE   FAIR      73  53  48 NW6       30.13F
HENDERSON      FAIR      74  52  46 NW6       30.11F
CENTER         FAIR      72  53  51 N9        30.10F
NACOGDOCHES      N/A     74  56  53 NW10G16   30.11F
LUFKIN         FAIR      76  56  49 NW9       30.10F
$$

SUPPLEMENTAL OBSERVATIONS (NWS FORT WORTH AREA)

CITY           SKY/WX    TMP DP  RH WIND       PRES   REMARKS
$$

SUPPLEMENTAL OBSERVATIONS (NWS NORMAN AREA)

CITY           SKY/WX    TMP DP  RH WIND       PRES   REMARKS
GOODLETT         N/A     75  44  33 E15G22    30.12R
ODELL            N/A     76  48  37 E9        30.14S
CROWELL          N/A     77  48  36 E14       30.11F
KNOX CITY        N/A     79  46  31 SE14      30.09F
SEYMOUR          N/A     77  49  37 E13G18    30.11F
$$

SUPPLEMENTAL OBSERVATIONS (NWS SAN ANGELO AREA)

CITY           SKY/WX    TMP DP  RH WIND       PRES   REMARKS
WEINERT          N/A     78  49  36 SE14      30.09F
HASKELL          N/A     76  47  35 E13       30.09F
THROCKMORTON     N/A     78  51  38 SE9       30.11F
STAMFORD         N/A     79  53  40 SE15      30.10F
CLYDE            N/A     76  55  48 SE12      30.12S
$$

SUPPLEMENTAL OBSERVATIONS (NWS SHREVEPORT AREA)

CITY           SKY/WX    TMP DP  RH WIND       PRES   REMARKS
$$

SUPPLEMENTAL OBSERVATIONS ARE A COLLECTION OF AUTOMATED INSTRUMENTS
THAT ARE MAINTAINED BY A VARIETY OF FEDERAL AND STATE AGENCIES.
CERTAIN ELEMENTS...SUCH AS HUMIDITY VALUES AND SUSTAINED WIND
SPEEDS...MAY BE APPROXIMATED.





USA.gov is the U.S. government's official web portal to all federal, state and local government web resources and services.